Flag for Netherlands Weather past 2 weeks in Maastricht, Netherlands

Now
73 °F

Clear.


Feels Like: 76 °F
Forecast: 61 / 72 °F
Wind: 7 mph from Northeast

Location: Maastricht Airport Zuid Limburg

Current Time: Jul 24, 2014 at 11:26:25 AM

Latest Report: Jul 24, 2014 at 10:55 AM


Visibility: N/A

Pressure: 29.98 "Hg

Humidity: 61%

Dew point: 59 °F

Location of MaastrichtLocation

Historic Weather in Maastricht — Graph

°F

Maastricht temperature yesterday

Maximum temperature yesterday: 82 °F (at 3:55 PM)
Minimum temperature yesterday: 63 °F (at 3:55 AM)
Average temperature yesterday: 73 °F

Past Weeks' High & Low Weather Summary

 TemperatureHumidityPressure
High91 °F (Jul 18, 4:25 PM)100% (Jul 9, 2:55 PM)30.18 "Hg (Jul 9, 2:55 PM)
Low54 °F (Jul 15, 4:25 AM)26% (Jul 18, 5:55 PM)29.71 "Hg (Jul 9, 4:25 PM)
Average69 °F80%29.96 "Hg
* Reported Jul 9 10:55 AM — Jul 24 10:25 AM, Maastricht, Weather by CustomWeather, © 2014

Note: Actual official high and low records may vary slightly from our data, if they occured in-between our weather recording intervals... More about our weather records

Advertising

Maastricht weather history for previous 24 hours

 ConditionsComfort  
Time TempWeatherWind HumidityBarometerVisibility
10:25 AM
Jul 24
72 °FClear.9 mph65%29.98 "HgN/A
9:55 AM70 °FMild.12 mph69%29.98 "HgN/A
9:25 AM68 °FMild.10 mph73%29.98 "HgN/A
8:55 AM68 °FMild.9 mph73%29.98 "HgN/A
8:25 AM66 °FMild.9 mph78%29.98 "HgN/A
7:55 AM64 °FClear.9 mph83%29.98 "HgN/A
7:25 AM63 °FClear.8 mph83%29.98 "HgN/A
6:55 AM63 °FClear.8 mph88%29.98 "HgN/A
6:25 AM61 °FCool.8 mph88%29.98 "HgN/A
5:55 AM61 °FCool.9 mph94%29.98 "HgN/A
5:25 AM61 °FCool.9 mph94%29.98 "HgN/A
4:55 AM61 °FCool.7 mph88%29.98 "HgN/A
4:25 AM63 °FMild.7 mph88%29.98 "HgN/A
3:55 AM64 °FMild.6 mph83%29.98 "HgN/A
3:25 AM63 °FMild.7 mph88%29.98 "HgN/A
2:55 AM63 °FMild.6 mph88%29.98 "HgN/A
2:25 AM64 °FMild.6 mph83%29.98 "HgN/A
1:55 AM64 °FMild.6 mph83%30.01 "HgN/A
1:25 AM68 °FMild.6 mph73%30.01 "HgN/A
12:55 AM66 °FMild.6 mph78%30.01 "HgN/A
12:25 AM68 °FMild.7 mph73%30.01 "HgN/A
11:55 PM
Jul 23
68 °FMild.7 mph73%30.01 "HgN/A
11:25 PM70 °FClear.7 mph73%30.01 "HgN/A
10:55 PM72 °FClear.8 mph69%30.01 "HgN/A
10:25 PM73 °FMild.8 mph65%30.01 "HgN/A
9:55 PM73 °FMild.8 mph65%30.01 "HgN/A
8:55 PM77 °FWarm.10 mph61%29.98 "HgN/A
8:25 PM77 °FWarm.8 mph65%29.98 "HgN/A
7:55 PM77 °FWarm.6 mph61%29.98 "HgN/A
7:25 PM79 °FClear.5 mph58%29.98 "HgN/A
6:55 PM81 °FWarm.10 mph51%29.98 "HgN/A
6:25 PM82 °FClear.13 mph45%29.98 "HgN/A
5:55 PM82 °FClear.13 mph55%29.98 "HgN/A
5:25 PM82 °FClear.14 mph51%30.01 "HgN/A
4:55 PM82 °FClear.10 mph51%30.01 "HgN/A
4:25 PM82 °FWarm.12 mph55%30.01 "HgN/A
3:55 PM82 °FPassing clouds.10 mph51%30.01 "HgN/A
3:25 PM81 °FWarm.10 mph54%30.01 "HgN/A
2:55 PM81 °FClear.14 mph58%30.04 "HgN/A
11:55 AM77 °FClear.9 mph69%30.07 "HgN/A
11:25 AM77 °FClear.9 mph69%30.07 "HgN/A
Weather by CustomWeather, © 2014

See weather overviewHow to use our weather pages